This is the latest recevied weather packets stored in our database for station/object KB9YVI-11. If no packets are shown the sender has not sent any weather packets the latest 10 day(s).
| Time | Temp. | Humidity | Pressure | Rain* | Wind** | Luminosity | Snow |
|---|---|---|---|---|---|---|---|
| 1777749040 | 12.78° C | 71% | 0 hPa | 0 mm | - | - | - |
| 1777748740 | 12.78° C | 69% | 0 hPa | 0 mm | - | - | - |
| 1777748440 | 12.78° C | 68% | 0 hPa | 0 mm | - | - | - |
| 1777748140 | 12.78° C | 70% | 0 hPa | 0 mm | - | - | - |
| 1777747840 | 12.78° C | 67% | 0 hPa | 0 mm | - | - | - |
| 1777747240 | 13.33° C | 69% | 0 hPa | 0 mm | - | - | - |
| 1777746940 | 12.78° C | 66% | 0 hPa | 0 mm | - | - | - |
| 1777746639 | 12.22° C | 67% | 0 hPa | 0 mm | - | - | - |
| 1777746340 | 12.22° C | 69% | 0 hPa | 0 mm | - | - | - |
| 1777746040 | 12.22° C | 67% | 0 hPa | 0 mm | - | - | - |
| 1777745440 | 12.22° C | 72% | 0 hPa | 0 mm | - | - | - |
| 1777744540 | 11.67° C | 73% | 0 hPa | 0 mm | - | - | - |
| 1777744240 | 11.67° C | 77% | 0 hPa | 0 mm | - | - | - |
| 1777743640 | 12.22° C | 78% | 0 hPa | 0 mm | - | - | - |
| 1777743340 | 12.22° C | 78% | 0 hPa | 0 mm | - | - | - |
| 1777743039 | 12.22° C | 77% | 0 hPa | 0 mm | - | - | - |
| 1777742440 | 11.11° C | 83% | 0 hPa | 0 mm | - | - | - |
| 1777741840 | 11.11° C | 83% | 0 hPa | 0 mm | - | - | - |
| 1777741540 | 11.11° C | 83% | 0 hPa | 0 mm | - | - | - |
| 1777740940 | 10.56° C | 85% | 0 hPa | 0 mm | - | - | - |
| 1777740640 | 10.56° C | 84% | 0 hPa | 0 mm | - | - | - |
| 1777740040 | 11.11° C | 81% | 0 hPa | 0 mm | - | - | - |
| 1777739740 | 11.67° C | 81% | 0 hPa | 0 mm | - | - | - |
| 1777739439 | 11.67° C | 82% | 0 hPa | 0 mm | - | - | - |
| 1777739140 | 11.67° C | 84% | 0 hPa | 0 mm | - | - | - |
* Rain latest hour (hover to see other rain measurements)
** Current wind speed in m/s (hover to see current wind gust speed)